Wind_Speed
6 2 8 18 20 21 24 26 25 24 24 24 24 22 16 15 15 17 15 16 16 21 20 14 16 16 16 15 14 13 12 10 9 8 5 4 4 5 6 6 5 4 3
8 3 2 13 18 20 24 26 26 25 27 24 26 17 19 13 12 14 16 15 18 22 19 16 16 14 14 14 14 12 12 7 10 7 6 4 6 6 7 7 7 7 5
11 7 4 9 18 22 25 26 26 28 28 27 28 21 18 15 13 14 17 17 18 19 18 16 13 12 13 14 14 13 13 10 10 8 4 2 5 6 6 7 7 7 7
10 9 7 9 17 21 23 26 29 28 28 28 28 21 19 11 13 23 21 23 23 23 19 10 8 8 12 15 17 16 12 9 10 9 10 8 5 4 4 7 7 8 8
13 11 9 10 11 17 20 20 20 20 21 24 24 22 17 14 15 22 25 24 26 31 34 22 9 10 9 11 15 16 15 14 10 12 9 10 8 9 8 6 7 8 9
13 8 4 5 8 13 16 19 19 20 20 24 20 18 13 13 16 18 21 26 27 27 31 33 19 23 20 20 24 20 15 13 13 12 12 10 7 10 9 6 11 10 7
11 8 5 8 11 13 16 18 19 19 20 20 17 15 13 9 10 18 20 19 23 30 39 37 34 30 23 27 26 18 17 13 13 13 12 10 8 6 10 11 12 6 9
12 12 8 12 14 15 16 21 25 23 20 20 19 20 12 19 16 15 16 19 19 19 33 31 28 19 23 22 20 17 17 16 13 12 10 8 7 7 7 9 9 7 10
14 13 14 15 19 20 21 24 26 22 21 26 31 21 16 13 11 13 12 17 18 23 29 28 20 18 17 17 13 10 11 11 10 9 8 6 5 5 5 6 8 10 9
15 14 14 19 21 22 20 23 20 17 19 18 15 14 10 9 13 10 10 10 10 15 24 25 13 11 10 8 13 13 16 10 7 6 5 5 5 5 5 7 9 10 13
12 12 15 19 21 26 28 26 25 20 20 19 13 14 9 9 9 11 10 10 9 10 15 18 15 13 15 17 11 10 8 6 5 5 5 6 6 7 7 8 9 11 11
10 12 16 20 23 20 26 24 24 23 19 18 16 18 19 17 16 15 13 11 11 11 11 11 11 10 9 7 7 6 5 4 5 6 6 7 7 9 9 10 11 12 13
12 12 17 19 19 21 20 22 24 20 17 19 21 20 22 22 21 19 18 16 16 15 14 12 10 8 6 4 2 2 4 5 6 7 8 11 11 11 11 12 13 14 14
10 12 13 15 17 19 19 21 22 20 20 20 22 22 20 19 19 19 17 16 14 13 12 10 8 6 4 2 0 2 5 7 9 10 12 13 13 14 15 16 16 17 18
8 9 11 14 18 20 20 21 21 20 20 21 21 20 18 17 17 17 15 14 12 11 10 8 7 5 3 1 2 4 7 9 11 12 12 13 15 15 17 18 19 20 19
8 10 11 15 16 17 18 18 17 17 17 19 19 17 16 15 15 13 12 11 10 9 7 7 5 4 3 4 5 6 10 12 13 15 16 17 17 18 19 21 22 21 17
10 10 11 13 14 15 15 16 15 14 15 16 15 14 13 13 11 10 10 9 8 7 7 7 7 6 7 8 8 9 10 11 13 14 16 16 16 15 17 18 18 20 23
11 11 13 13 13 13 13 13 12 12 13 13 12 10 10 9 8 8 7 6 6 7 7 7 8 8 7 8 7 9 12 13 15 16 17 18 19 19 19 20 22 23 23
13 13 14 14 13 14 14 14 12 11 11 10 8 7 6 6 6 6 6 6 6 7 7 8 8 8 8 10 11 13 15 16 18 18 18 18 19 19 18 18 21 23 23
16 17 16 15 14 13 12 12 12 11 9 7 6 5 4 4 3 3 2 2 4 5 6 7 8 9 10 11 13 14 15 17 18 18 17 16 17 19 19 19 19 22 24
19 19 17 17 15 15 13 12 11 10 9 7 6 5 4 4 2 1 3 5 6 6 7 8 10 11 11 13 13 13 14 15 17 18 18 17 18 20 20 20 21 24 26
19 19 19 18 17 16 15 13 11 10 8 7 6 6 4 2 3 3 3 3 5 7 7 8 9 10 11 12 13 13 13 14 16 17 19 18 18 20 21 21 21 21 21
21 20 20 19 17 17 15 14 12 10 9 8 7 5 3 2 1 2 3 3 5 6 8 8 10 11 11 11 10 11 13 14 15 17 17 20 21 21 20 16 18 22 22
21 21 21 20 18 16 14 13 14 12 10 9 8 6 4 3 1 2 2 3 5 7 8 10 10 10 10 9 10 13 14 14 14 17 18 15 15 17 19 17 16 16 16
21 23 22 21 20 18 15 15 14 13 11 9 8 7 4 2 1 2 1 3 5 6 8 9 10 11 11 11 16 15 15 16 15 18 18 15 15 14 14 14 14 14 14
23 22 21 21 21 19 17 15 14 12 11 10 8 6 5 2 1 1 2 6 6 5 6 7 8 10 10 13 15 16 15 16 15 14 12 12 13 13 14 14 15 15 15
Wind_Direction
293 275 235 221 221 203 198 193 193 192 187 195 190 178 180 180 179 179 182 178 180 185 185 177 177 179 184 185 184 178 166 158 165 156 171 172 193 200 203 205 203 203 203
279 237 238 206 211 204 197 193 193 193 194 191 197 191 185 178 180 176 180 186 189 192 190 192 184 193 188 187 187 186 174 176 184 207 199 199 199 204 205 210 212 216 209
293 278 242 212 201 208 201 199 196 194 191 188 193 192 188 180 173 178 184 186 190 190 192 197 193 206 196 195 195 201 195 183 194 201 215 191 241 191 206 209 210 215 216
286 271 240 229 206 204 201 200 194 194 192 185 184 190 182 178 193 187 189 190 191 184 177 172 201 216 223 210 213 217 212 202 200 206 230 244 280 234 195 220 226 223 219
300 279 251 224 224 196 192 194 190 184 174 182 198 197 194 199 198 193 194 193 191 196 196 202 217 219 245 247 239 229 216 219 222 215 212 224 236 248 267 262 192 235 226
330 299 268 212 195 182 176 177 178 172 172 177 182 195 194 172 176 176 179 188 188 186 193 186 204 203 204 239 245 237 231 227 230 228 230 226 230 236 247 261 253 250 219
356 4 84 115 133 152 157 162 156 136 158 170 170 156 118 153 185 189 181 169 183 187 187 185 198 207 215 229 250 234 232 225 231 230 226 223 221 234 249 262 272 270 250
6 19 52 98 107 121 126 127 124 125 139 145 131 126 126 151 153 182 194 189 189 197 186 192 200 223 233 245 237 239 233 229 230 230 224 225 219 216 230 250 260 254 255
14 25 32 76 92 100 114 120 121 131 136 137 127 146 149 158 144 168 182 188 209 204 195 197 206 237 232 225 224 233 243 227 216 215 211 209 211 211 223 240 250 266 276
22 33 37 48 66 70 92 107 96 103 113 133 140 133 138 144 143 157 160 181 198 199 198 195 186 202 198 207 218 237 236 211 198 197 198 210 218 224 227 244 252 256 267
25 41 46 56 66 79 82 93 95 91 106 134 131 133 125 123 131 137 130 120 136 162 185 187 205 217 221 222 214 204 195 188 194 210 216 227 226 242 246 250 255 260 265
42 57 61 64 66 67 83 82 92 94 100 106 109 104 106 105 106 106 111 120 128 129 148 161 165 168 166 166 174 184 190 198 210 223 229 246 250 249 255 255 261 264 265
58 66 68 70 71 76 73 81 83 82 83 94 99 95 94 96 94 92 92 95 98 101 105 114 121 127 127 130 145 195 220 230 237 239 248 257 259 262 266 265 265 265 264
66 79 81 78 83 84 85 87 91 93 95 94 93 91 90 92 90 89 88 89 90 94 96 95 90 86 81 82 91 251 249 250 255 262 265 266 264 265 268 271 268 267 266
78 83 93 100 97 96 98 96 95 97 100 96 94 93 92 92 90 90 91 90 91 91 88 87 82 72 71 49 306 285 276 276 275 274 275 273 273 276 274 276 274 273 271
109 111 108 104 101 101 98 98 99 105 107 102 99 100 98 96 92 90 88 85 81 75 72 63 52 32 14 339 349 313 295 291 291 291 287 283 281 277 275 272 272 272 265
133 124 119 115 112 109 110 107 107 108 101 98 98 97 94 87 82 77 71 68 62 51 40 29 17 359 346 334 341 325 305 294 292 291 290 288 284 283 283 279 274 273 271
149 142 134 125 119 116 112 109 107 103 100 98 96 90 84 77 70 66 65 56 42 27 15 360 347 338 328 327 338 326 311 296 289 288 290 288 287 284 282 280 279 275 275
158 151 145 138 135 133 132 125 115 109 105 99 92 80 69 66 59 51 41 25 6 354 342 335 329 325 320 326 327 322 304 298 295 296 293 290 289 289 286 279 278 279 278
161 155 152 148 145 143 139 132 129 126 119 113 101 87 85 94 85 68 47 359 331 325 324 325 326 321 315 310 314 314 301 293 295 296 293 287 285 291 291 289 284 283 282
163 160 158 159 157 153 151 146 143 133 128 119 113 105 94 88 90 60 9 336 329 330 327 320 311 305 303 302 308 310 301 296 295 295 296 292 290 291 290 287 280 278 283
166 166 163 162 161 161 160 154 147 143 139 131 125 116 105 80 25 5 346 335 329 322 314 304 302 301 305 308 309 302 302 297 296 296 294 292 290 290 290 292 290 294 300
170 171 166 160 163 164 166 159 155 151 147 143 137 132 129 106 44 338 335 332 333 316 309 311 314 313 310 309 310 310 307 307 302 297 296 295 295 294 293 293 293 294 288
172 170 166 164 163 167 164 162 157 158 158 156 154 157 155 137 91 31 11 347 327 313 318 316 315 313 317 318 320 316 312 308 305 303 301 313 304 298 297 297 295 292 287
173 172 170 168 166 166 162 160 161 162 163 162 162 155 142 121 83 44 7 334 317 312 309 308 312 318 315 316 315 318 314 314 317 319 309 309 312 314 312 307 300 292 289
173 173 172 167 165 165 164 163 164 166 165 165 165 159 151 145 118 40 341 317 322 311 311 312 317 315 309 318 323 320 325 324 324 318 317 322 323 319 313 308 304 299 292
Height
748 752 753 756 759 763 767 773 777 782 787 792 796 799 805 809 811 815 820 823 827 829 833 839 841 844 847 849 852 853 854 855 858 860 863 864 865 865 865 866 866 866 867
744 747 752 754 757 761 764 768 773 779 785 789 795 799 800 807 812 813 818 822 825 829 833 838 841 845 846 849 852 855 853 855 857 857 857 859 863 862 863 864 864 865 865
747 745 748 750 753 758 761 766 770 775 780 786 791 795 799 805 807 810 814 820 824 829 832 836 840 845 846 848 851 854 853 853 856 857 858 857 856 858 861 862 863 865 864
743 743 745 747 748 753 759 762 765 772 776 781 786 792 793 799 802 804 809 815 820 824 827 834 839 843 845 846 849 854 854 853 853 856 857 856 856 854 856 860 862 862 862
743 739 740 743 746 751 757 763 768 770 777 777 784 790 795 796 800 801 805 810 815 819 817 831 837 839 842 846 849 853 852 853 853 852 855 855 855 855 857 851 857 862 860
745 738 737 740 744 750 756 761 766 771 768 782 786 791 793 794 799 801 804 806 809 815 822 824 834 841 841 847 850 850 850 851 852 852 853 852 853 852 856 855 852 853 856
753 744 737 739 745 752 757 762 766 770 776 781 787 791 794 797 800 804 805 808 811 811 814 823 830 838 842 845 848 847 847 848 850 851 851 850 850 852 855 853 851 852 852
760 751 746 745 750 755 759 763 768 774 778 784 788 792 798 794 794 802 808 809 809 816 820 824 833 839 840 842 844 845 845 844 847 849 848 849 849 850 853 853 853 851 850
765 759 754 754 757 760 763 766 771 777 782 787 788 793 795 801 797 804 808 809 813 816 820 827 834 838 838 839 840 842 844 844 845 846 846 847 848 849 851 852 852 851 847
774 769 766 763 764 766 769 773 778 783 786 791 797 800 803 805 804 806 809 812 814 816 819 825 832 835 835 835 838 840 843 844 843 845 845 847 848 850 849 850 851 850 850
782 779 776 774 774 773 775 780 785 788 792 796 798 800 804 805 806 805 809 812 813 816 821 826 830 832 835 838 838 842 842 842 843 843 846 848 848 848 848 849 849 849 849
790 786 783 781 782 783 783 788 791 794 798 799 802 805 806 808 810 811 813 816 818 821 824 828 832 834 838 839 840 841 841 842 843 846 846 847 847 846 846 846 847 847 845
794 792 790 790 791 793 795 794 797 801 805 806 808 811 811 814 817 817 818 821 823 825 827 832 834 837 838 839 840 841 843 843 845 845 844 845 844 842 842 843 843 843 842
800 800 799 800 800 800 801 802 805 809 813 814 815 816 819 820 821 821 825 826 828 830 832 834 836 838 838 840 842 842 843 843 843 843 842 841 840 839 839 838 837 838 837
805 805 805 806 807 807 809 811 813 815 817 819 820 822 824 825 826 828 831 831 834 835 835 838 839 840 840 842 842 842 842 841 840 838 838 837 837 837 836 836 835 834 833
808 809 810 811 812 813 814 815 818 821 823 823 824 826 828 830 831 833 834 835 837 836 838 839 839 840 840 840 840 840 838 837 836 834 835 834 832 832 831 830 829 829 827
809 811 812 814 816 817 819 822 823 825 825 825 827 829 831 831 833 833 834 835 837 837 838 838 838 839 838 837 837 838 836 836 835 833 833 831 829 827 826 825 824 823 822
807 811 814 816 818 821 823 824 826 827 828 829 831 832 833 834 834 835 836 837 837 837 838 838 839 838 838 837 837 836 834 832 833 831 830 827 825 823 822 821 819 817 816
805 809 813 817 820 822 824 825 828 829 830 832 833 834 835 836 836 837 837 837 838 838 839 839 838 837 837 835 834 834 834 830 828 826 825 823 821 819 818 816 814 812 810
804 808 812 816 819 823 825 826 828 830 832 834 836 836 838 839 839 840 840 841 841 840 839 838 837 836 835 835 834 832 831 827 825 823 822 820 818 815 814 812 810 806 804
802 808 811 814 818 822 825 828 829 831 833 835 837 838 840 840 842 842 840 841 840 839 838 837 836 835 835 833 831 829 828 826 823 820 817 815 814 811 809 807 805 801 798
803 807 810 814 817 821 825 828 830 833 834 836 837 839 841 842 841 841 841 840 840 838 838 837 836 835 833 831 829 827 825 823 820 817 814 812 809 806 804 801 799 797 794
802 807 809 814 818 820 823 826 830 833 835 836 837 839 841 842 842 842 841 840 839 839 838 836 834 833 832 829 827 825 822 819 817 814 810 808 804 801 799 797 795 793 790
798 803 809 813 817 821 823 826 829 832 834 836 838 840 841 842 842 842 841 840 840 839 837 835 834 832 829 827 825 822 819 816 813 810 806 803 800 798 795 792 790 788 786
796 800 804 810 815 820 823 825 828 831 833 836 838 839 840 841 841 841 841 840 840 838 837 835 832 829 827 825 823 819 816 813 810 807 804 800 797 794 792 790 787 785 783
792 798 802 807 812 818 822 825 827 829 832 834 836 837 838 839 840 840 840 838 838 836 834 832 830 828 826 822 819 816 813 810 807 804 801 799 796 794 791 788 785 782 779